When you browse on this site, cookies collect data to enhance your experience and personalize the content and advertising you see.
Visit our Privacy Policy to learn more. By continuing to use the site, you agree to this use of cookies and data.
  • In Österreich
  • Länderverzeichnis
  • Für 7 Tage
  • Wassertemperatur
  • Satellitenkarten
  • Wetterkarte
  • News
  • Widgets
  • user-avatar
    Anmelden

    Stündliche Wetter Mendoza

    Heute, 23 Januar, Mittwoch

    Zeit Temperatur Niederschläge Wind Luftdruck Luftfeuchtigkeit
    00:00 +30°C° 0.1 mm 5 m/S 698 mmHg 39%
    01:00 +28°C° 0.1 mm 7 m/S 698 mmHg 42%
    02:00 +28°C° 0 mm 7 m/S 698 mmHg 42%
    03:00 +27°C° 0 mm 6 m/S 698 mmHg 41%
    04:00 +27°C° 0 mm 6 m/S 698 mmHg 41%
    05:00 +27°C° 0 mm 6 m/S 698 mmHg 40%
    06:00 +28°C° 0 mm 6 m/S 699 mmHg 40%
    07:00 +28°C° 0 mm 6 m/S 699 mmHg 39%
    08:00 +30°C° 0 mm 6 m/S 699 mmHg 38%
    09:00 +32°C° 0 mm 5 m/S 699 mmHg 36%
    10:00 +34°C° 0 mm 5 m/S 699 mmHg 34%
    11:00 +35°C° 0 mm 4 m/S 699 mmHg 32%
    12:00 +36°C° 0 mm 4 m/S 698 mmHg 30%
    13:00 +37°C° 0 mm 3 m/S 698 mmHg 29%
    14:00 +37°C° 0 mm 3 m/S 698 mmHg 28%
    15:00 +37°C° 0 mm 3 m/S 697 mmHg 28%
    16:00 +38°C° 0 mm 2 m/S 697 mmHg 28%
    17:00 +37°C° 0 mm 2 m/S 697 mmHg 31%
    18:00 +35°C° 0 mm 1 m/S 697 mmHg 33%
    19:00 +34°C° 0 mm 1 m/S 697 mmHg 35%
    20:00 +34°C° 0.5 mm 1 m/S 697 mmHg 38%
    21:00 +34°C° 0.5 mm 2 m/S 698 mmHg 41%
    22:00 +32°C° 0.5 mm 2 m/S 698 mmHg 44%
    23:00 +32°C° 0.2 mm 2 m/S 697 mmHg 45%

    Morgen, 24 Januar, Donnerstag

    Zeit Temperatur Niederschläge Wind Luftdruck Luftfeuchtigkeit
    00:00 +31°C° 0.2 mm 2 m/S 697 mmHg 45%
    01:00 +31°C° 0.2 mm 2 m/S 697 mmHg 45%
    02:00 +30°C° 0 mm 2 m/S 697 mmHg 47%
    03:00 +30°C° 0 mm 1 m/S 696 mmHg 48%
    04:00 +29°C° 0 mm 1 m/S 696 mmHg 49%
    05:00 +30°C° 0 mm 1 m/S 696 mmHg 47%
    06:00 +31°C° 0 mm 1 m/S 697 mmHg 45%
    07:00 +32°C° 0 mm 1 m/S 697 mmHg 43%
    08:00 +34°C° 0 mm 2 m/S 697 mmHg 40%
    09:00 +36°C° 0 mm 3 m/S 697 mmHg 38%
    10:00 +37°C° 0 mm 4 m/S 697 mmHg 35%
    11:00 +38°C° 0 mm 4 m/S 696 mmHg 34%
    12:00 +40°C° 0 mm 4 m/S 696 mmHg 32%
    13:00 +41°C° 0 mm 4 m/S 695 mmHg 30%
    14:00 +41°C° 0 mm 4 m/S 695 mmHg 29%
    15:00 +42°C° 0 mm 3 m/S 695 mmHg 28%
    16:00 +42°C° 0 mm 3 m/S 694 mmHg 27%
    17:00 +40°C° 0 mm 3 m/S 695 mmHg 28%
    18:00 +39°C° 0 mm 2 m/S 695 mmHg 29%
    19:00 +37°C° 0 mm 1 m/S 695 mmHg 30%
    20:00 +37°C° 0 mm 1 m/S 695 mmHg 32%
    21:00 +37°C° 0 mm 2 m/S 696 mmHg 33%
    22:00 +37°C° 0 mm 2 m/S 696 mmHg 35%
    23:00 +36°C° 0 mm 2 m/S 696 mmHg 36%

    übermorgen, 25 Januar, Freitag

    Zeit Temperatur Niederschläge Wind Luftdruck Luftfeuchtigkeit
    00:00 +35°C° 0 mm 2 m/S 695 mmHg 37%
    01:00 +35°C° 0 mm 2 m/S 695 mmHg 37%
    02:00 +34°C° 0 mm 2 m/S 695 mmHg 40%
    03:00 +32°C° 0 mm 2 m/S 694 mmHg 42%
    04:00 +32°C° 0 mm 2 m/S 694 mmHg 44%
    05:00 +33°C° 0 mm 3 m/S 695 mmHg 46%
    06:00 +34°C° 0 mm 4 m/S 696 mmHg 48%
    07:00 +34°C° 0 mm 5 m/S 696 mmHg 50%
    08:00 +35°C° 0.4 mm 5 m/S 696 mmHg 46%
    09:00 +36°C° 0.4 mm 6 m/S 697 mmHg 43%
    10:00 +39°C° 0.4 mm 7 m/S 697 mmHg 39%
    11:00 +39°C° 0.1 mm 6 m/S 697 mmHg 36%
    12:00 +40°C° 0.1 mm 6 m/S 697 mmHg 33%
    13:00 +41°C° 0.1 mm 5 m/S 697 mmHg 30%
    14:00 +41°C° 0.3 mm 5 m/S 697 mmHg 31%
    15:00 +40°C° 0.3 mm 5 m/S 697 mmHg 32%
    16:00 +40°C° 0.3 mm 5 m/S 697 mmHg 33%
    17:00 +38°C° 0.7 mm 4 m/S 697 mmHg 36%
    18:00 +37°C° 0.7 mm 3 m/S 697 mmHg 38%
    19:00 +36°C° 0.7 mm 2 m/S 698 mmHg 40%
    20:00 +36°C° 0 mm 2 m/S 698 mmHg 41%
    21:00 +35°C° 0 mm 2 m/S 698 mmHg 42%
    22:00 +34°C° 0 mm 2 m/S 699 mmHg 43%
    23:00 +33°C° 1.1 mm 3 m/S 698 mmHg 49%

    26 Januar, Samstag

    Zeit Temperatur Niederschläge Wind Luftdruck Luftfeuchtigkeit
    00:00 +31°C° 1.1 mm 3 m/S 698 mmHg 55%
    01:00 +30°C° 1.1 mm 4 m/S 698 mmHg 61%
    02:00 +29°C° 1.1 mm 6 m/S 698 mmHg 60%
    03:00 +28°C° 1.1 mm 8 m/S 698 mmHg 59%
    04:00 +27°C° 1.1 mm 10 m/S 699 mmHg 59%
    05:00 +27°C° 0 mm 10 m/S 699 mmHg 51%
    06:00 +27°C° 0 mm 9 m/S 699 mmHg 43%
    07:00 +27°C° 0 mm 9 m/S 700 mmHg 35%
    08:00 +28°C° 0 mm 8 m/S 700 mmHg 35%
    09:00 +29°C° 0 mm 7 m/S 700 mmHg 36%
    10:00 +32°C° 0 mm 6 m/S 701 mmHg 36%
    11:00 +33°C° 0 mm 5 m/S 700 mmHg 34%
    12:00 +34°C° 0 mm 5 m/S 700 mmHg 33%
    13:00 +35°C° 0 mm 4 m/S 699 mmHg 31%
    14:00 +35°C° 0 mm 4 m/S 699 mmHg 31%
    15:00 +35°C° 0 mm 4 m/S 699 mmHg 31%
    16:00 +36°C° 0 mm 3 m/S 698 mmHg 30%
    17:00 +35°C° 0 mm 3 m/S 698 mmHg 33%
    18:00 +34°C° 0 mm 2 m/S 699 mmHg 36%
    19:00 +32°C° 0 mm 2 m/S 699 mmHg 39%
    20:00 +32°C° 0 mm 2 m/S 699 mmHg 43%
    21:00 +31°C° 0 mm 3 m/S 699 mmHg 46%
    22:00 +31°C° 0 mm 3 m/S 700 mmHg 50%
    23:00 +30°C° 0 mm 3 m/S 699 mmHg 53%

    27 Januar, Sonntag

    Zeit Temperatur Niederschläge Wind Luftdruck Luftfeuchtigkeit
    00:00 +29°C° 0 mm 2 m/S 699 mmHg 57%
    01:00 +29°C° 0 mm 2 m/S 698 mmHg 61%
    02:00 +28°C° 0 mm 2 m/S 698 mmHg 63%
    03:00 +28°C° 0 mm 2 m/S 697 mmHg 66%
    04:00 +27°C° 0 mm 2 m/S 697 mmHg 68%
    05:00 +28°C° 0 mm 2 m/S 697 mmHg 66%
    06:00 +28°C° 0 mm 2 m/S 698 mmHg 64%
    07:00 +29°C° 0 mm 2 m/S 698 mmHg 62%
    08:00 +30°C° 0 mm 3 m/S 698 mmHg 57%
    09:00 +33°C° 0 mm 3 m/S 698 mmHg 53%
    10:00 +34°C° 0 mm 3 m/S 698 mmHg 48%
    11:00 +35°C° 0 mm 3 m/S 697 mmHg 45%
    12:00 +36°C° 0 mm 3 m/S 697 mmHg 41%
    13:00 +38°C° 0 mm 3 m/S 696 mmHg 38%
    14:00 +38°C° 0.1 mm 3 m/S 696 mmHg 36%
    15:00 +38°C° 0.1 mm 3 m/S 696 mmHg 35%
    16:00 +38°C° 0.1 mm 3 m/S 696 mmHg 33%
    17:00 +38°C° 0.1 mm 3 m/S 696 mmHg 34%
    18:00 +37°C° 0.1 mm 3 m/S 696 mmHg 34%
    19:00 +36°C° 0.1 mm 2 m/S 696 mmHg 35%
    20:00 +36°C° 0 mm 3 m/S 697 mmHg 36%
    21:00 +35°C° 0 mm 3 m/S 697 mmHg 37%
    22:00 +35°C° 0 mm 3 m/S 697 mmHg 38%
    23:00 +34°C° 0 mm 3 m/S 697 mmHg 40%

    28 Januar, Montag

    Zeit Temperatur Niederschläge Wind Luftdruck Luftfeuchtigkeit
    00:00 +34°C° 0 mm 2 m/S 696 mmHg 42%
    01:00 +32°C° 0 mm 2 m/S 696 mmHg 45%
    02:00 +32°C° 0 mm 2 m/S 696 mmHg 49%
    03:00 +31°C° 0 mm 2 m/S 696 mmHg 53%
    04:00 +30°C° 0 mm 1 m/S 696 mmHg 57%
    05:00 +31°C° 0 mm 1 m/S 696 mmHg 55%
    06:00 +32°C° 0 mm 1 m/S 697 mmHg 54%
    07:00 +32°C° 0 mm 1 m/S 697 mmHg 53%
    08:00 +34°C° 0.1 mm 2 m/S 697 mmHg 49%
    09:00 +36°C° 0.1 mm 3 m/S 697 mmHg 45%
    10:00 +37°C° 0.1 mm 3 m/S 697 mmHg 41%
    11:00 +38°C° 0.1 mm 4 m/S 696 mmHg 38%
    12:00 +38°C° 0.1 mm 4 m/S 696 mmHg 36%
    13:00 +40°C° 0.1 mm 4 m/S 695 mmHg 34%
    14:00 +40°C° 0.1 mm 4 m/S 695 mmHg 33%
    15:00 +40°C° 0.1 mm 4 m/S 695 mmHg 32%
    16:00 +41°C° 0.1 mm 4 m/S 694 mmHg 31%
    17:00 +40°C° 0.3 mm 4 m/S 694 mmHg 34%
    18:00 +38°C° 0.3 mm 3 m/S 695 mmHg 37%
    19:00 +37°C° 0.3 mm 3 m/S 695 mmHg 39%
    20:00 +36°C° 1 mm 3 m/S 695 mmHg 44%
    21:00 +35°C° 1 mm 2 m/S 695 mmHg 48%
    22:00 +34°C° 1 mm 2 m/S 695 mmHg 52%
    23:00 +33°C° 0.2 mm 1 m/S 695 mmHg 54%
    Mehr zeigen